Time,TemperatureF,DewpointF,PressureIn,WindDirection,WindDirectionDegrees,WindSpeedMPH,WindSpeedGustMPH,Humidity,HourlyPrecipIn,Conditions,Clouds,dailyrainin,SoftwareType,DateUTC
2013-01-20 00:04:00,43.0,25.0,-100.00,WSW,250,4.0,7.0,50,-99.99,,,-99.99,,2013-01-20 05:04:00,
2013-01-20 00:12:00,42.0,25.0,-100.00,West,260,2.0,7.0,50,-99.99,,,-99.99,,2013-01-20 05:12:00,
2013-01-20 00:23:00,42.0,25.0,-100.00,WSW,255,2.0,11.0,50,-99.99,,,-99.99,,2013-01-20 05:23:00,
2013-01-20 00:33:00,42.0,25.0,-100.00,WSW,250,1.0,4.0,50,-99.99,,,-99.99,,2013-01-20 05:33:00,
2013-01-20 00:43:00,42.0,25.0,-100.00,WSW,240,1.0,4.0,51,-99.99,,,-99.99,,2013-01-20 05:43:00,
2013-01-20 00:53:00,42.0,25.0,-100.00,WNW,285,1.0,4.0,51,-99.99,,,-99.99,,2013-01-20 05:53:00,
2013-01-20 01:02:00,41.0,25.0,-100.00,WSW,240,1.0,2.0,52,-99.99,,,-99.99,,2013-01-20 06:02:00,
2013-01-20 01:12:00,41.0,25.0,-100.00,SW,225,1.0,4.0,53,-99.99,,,-99.99,,2013-01-20 06:12:00,
2013-01-20 01:22:00,41.0,25.0,-100.00,West,275,0.0,1.0,53,-99.99,,,-99.99,,2013-01-20 06:22:00,
2013-01-20 01:33:00,41.0,25.0,-100.00,NW,315,1.0,4.0,54,-99.99,,,-99.99,,2013-01-20 06:33:00,
2013-01-20 01:43:00,41.0,25.0,-100.00,West,260,2.0,5.0,54,-99.99,,,-99.99,,2013-01-20 06:43:00,
2013-01-20 01:52:00,40.0,26.0,-100.00,SW,225,1.0,5.0,56,-99.99,,,-99.99,,2013-01-20 06:52:00,
2013-01-20 02:02:00,40.0,26.0,-100.00,SW,230,2.0,5.0,58,-99.99,,,-99.99,,2013-01-20 07:02:00,
2013-01-20 02:12:00,40.0,27.0,-100.00,SW,235,2.0,6.0,58,-99.99,,,-99.99,,2013-01-20 07:12:00,
2013-01-20 02:22:00,40.0,26.0,-100.00,WSW,245,2.0,4.0,57,-99.99,,,-99.99,,2013-01-20 07:22:00,
2013-01-20 02:32:00,40.0,27.0,-100.00,WSW,245,4.0,5.0,58,-99.99,,,-99.99,,2013-01-20 07:32:00,
2013-01-20 02:42:00,41.0,27.0,-100.00,West,270,3.0,9.0,58,-99.99,,,-99.99,,2013-01-20 07:42:00,
2013-01-20 02:52:00,41.0,27.0,-100.00,West,265,4.0,6.0,57,-99.99,,,-99.99,,2013-01-20 07:52:00,
2013-01-20 03:02:00,41.0,27.0,-100.00,West,265,6.0,9.0,57,-99.99,,,-99.99,,2013-01-20 08:02:00,
2013-01-20 03:12:00,42.0,27.0,-100.00,WSW,255,4.0,10.0,55,-99.99,,,-99.99,,2013-01-20 08:12:00,
2013-01-20 03:22:00,42.0,27.0,-100.00,West,270,4.0,11.0,55,-99.99,,,-99.99,,2013-01-20 08:22:00,
2013-01-20 03:32:00,42.0,27.0,-100.00,WSW,245,4.0,8.0,55,-99.99,,,-99.99,,2013-01-20 08:32:00,
2013-01-20 03:42:00,42.0,27.0,-100.00,West,260,6.0,9.0,54,-99.99,,,-99.99,,2013-01-20 08:42:00,
2013-01-20 03:52:00,42.0,27.0,-100.00,West,275,4.0,11.0,54,-99.99,,,-99.99,,2013-01-20 08:52:00,
2013-01-20 04:02:00,42.0,27.0,-100.00,WNW,290,3.0,6.0,54,-99.99,,,-99.99,,2013-01-20 09:02:00,
2013-01-20 04:12:00,42.0,27.0,-100.00,NW,305,5.0,7.0,53,-99.99,,,-99.99,,2013-01-20 09:12:00,
2013-01-20 04:22:00,42.0,27.0,-100.00,NW,315,2.0,5.0,54,-99.99,,,-99.99,,2013-01-20 09:22:00,
2013-01-20 04:33:00,42.0,26.0,-100.00,NW,305,2.0,6.0,54,-99.99,,,-99.99,,2013-01-20 09:33:00,
2013-01-20 04:42:00,41.0,26.0,-100.00,WNW,290,0.0,6.0,55,-99.99,,,-99.99,,2013-01-20 09:42:00,
2013-01-20 04:52:00,41.0,26.0,-100.00,WNW,295,1.0,6.0,55,-99.99,,,-99.99,,2013-01-20 09:52:00,
2013-01-20 05:02:00,41.0,26.0,-100.00,NW,305,1.0,6.0,55,-99.99,,,-99.99,,2013-01-20 10:02:00,
2013-01-20 05:12:00,40.0,26.0,-100.00,NW,325,2.0,9.0,56,-99.99,,,-99.99,,2013-01-20 10:12:00,
2013-01-20 05:23:00,40.0,26.0,-100.00,NW,325,4.0,6.0,56,-99.99,,,-99.99,,2013-01-20 10:23:00,
2013-01-20 05:32:00,40.0,26.0,-100.00,WSW,245,2.0,5.0,58,-99.99,,,-99.99,,2013-01-20 10:32:00,
2013-01-20 05:42:00,39.0,26.0,-100.00,WNW,300,1.0,4.0,59,-99.99,,,-99.99,,2013-01-20 10:42:00,
2013-01-20 05:52:00,39.0,26.0,-100.00,WNW,285,3.0,7.0,59,-99.99,,,-99.99,,2013-01-20 10:52:00,
2013-01-20 06:03:00,39.0,26.0,-100.00,WSW,245,3.0,6.0,59,-99.99,,,-99.99,,2013-01-20 11:03:00,
2013-01-20 06:12:00,39.0,27.0,-100.00,West,270,2.0,6.0,60,-99.99,,,-99.99,,2013-01-20 11:12:00,
2013-01-20 06:22:00,39.0,27.0,-100.00,West,265,3.0,7.0,60,-99.99,,,-99.99,,2013-01-20 11:22:00,
2013-01-20 06:33:00,40.0,27.0,-100.00,West,260,4.0,9.0,60,-99.99,,,-99.99,,2013-01-20 11:33:00,
2013-01-20 06:43:00,40.0,27.0,-100.00,West,260,1.0,6.0,60,-99.99,,,-99.99,,2013-01-20 11:43:00,
2013-01-20 06:53:00,40.0,27.0,-100.00,WSW,245,4.0,8.0,60,-99.99,,,-99.99,,2013-01-20 11:53:00,
2013-01-20 07:03:00,40.0,27.0,-100.00,WNW,300,3.0,7.0,60,-99.99,,,-99.99,,2013-01-20 12:03:00,
2013-01-20 07:13:00,39.0,27.0,-100.00,West,260,4.0,7.0,60,-99.99,,,-99.99,,2013-01-20 12:13:00,
2013-01-20 07:23:00,39.0,27.0,-100.00,West,265,2.0,7.0,61,-99.99,,,-99.99,,2013-01-20 12:23:00,
2013-01-20 07:33:00,39.0,27.0,-100.00,West,270,4.0,9.0,61,-99.99,,,-99.99,,2013-01-20 12:33:00,
2013-01-20 07:43:00,39.0,26.0,-100.00,West,275,1.0,6.0,61,-99.99,,,-99.99,,2013-01-20 12:43:00,
2013-01-20 07:53:00,38.0,26.0,-100.00,NW,320,2.0,5.0,62,-99.99,,,-99.99,,2013-01-20 12:53:00,
2013-01-20 08:03:00,38.0,26.0,-100.00,West,280,2.0,4.0,63,-99.99,,,-99.99,,2013-01-20 13:03:00,
2013-01-20 08:12:00,38.0,27.0,-100.00,WSW,250,1.0,4.0,64,-99.99,,,-99.99,,2013-01-20 13:12:00,
2013-01-20 08:23:00,37.0,27.0,-100.00,WSW,250,0.0,2.0,65,-99.99,,,-99.99,,2013-01-20 13:23:00,
2013-01-20 08:33:00,37.0,27.0,-100.00,WSW,240,1.0,2.0,66,-99.99,,,-99.99,,2013-01-20 13:33:00,
2013-01-20 08:43:00,38.0,28.0,-100.00,NW,315,1.0,1.0,67,-99.99,,,-99.99,,2013-01-20 13:43:00,
2013-01-20 08:52:00,40.0,29.0,-100.00,WNW,295,1.0,1.0,66,-99.99,,,-99.99,,2013-01-20 13:52:00,
2013-01-20 09:03:00,41.0,30.0,-100.00,WNW,300,0.0,2.0,64,-99.99,,,-99.99,,2013-01-20 14:03:00,
2013-01-20 09:12:00,42.0,30.0,-100.00,NW,305,0.0,1.0,62,-99.99,,,-99.99,,2013-01-20 14:12:00,
2013-01-20 09:23:00,43.0,30.0,-100.00,WNW,295,1.0,4.0,60,-99.99,,,-99.99,,2013-01-20 14:23:00,
2013-01-20 09:33:00,44.0,31.0,-100.00,West,275,3.0,5.0,60,-99.99,,,-99.99,,2013-01-20 14:33:00,
2013-01-20 09:43:00,45.0,31.0,-100.00,NW,320,2.0,7.0,57,-99.99,,,-99.99,,2013-01-20 14:43:00,
2013-01-20 09:53:00,47.0,31.0,-100.00,NW,315,2.0,5.0,55,-99.99,,,-99.99,,2013-01-20 14:53:00,
2013-01-20 10:04:00,49.0,32.0,-100.00,West,270,2.0,5.0,52,-99.99,,,-99.99,,2013-01-20 15:04:00,
2013-01-20 10:13:00,50.0,32.0,-100.00,West,265,5.0,7.0,49,-99.99,,,-99.99,,2013-01-20 15:13:00,
2013-01-20 10:23:00,51.0,32.0,-100.00,West,265,4.0,7.0,47,-99.99,,,-99.99,,2013-01-20 15:23:00,
2013-01-20 10:33:00,51.0,31.0,-100.00,West,260,3.0,9.0,45,-99.99,,,-99.99,,2013-01-20 15:33:00,
2013-01-20 10:43:00,53.0,31.0,-100.00,West,260,5.0,8.0,44,-99.99,,,-99.99,,2013-01-20 15:43:00,
2013-01-20 10:53:00,54.0,31.0,-100.00,West,275,3.0,7.0,42,-99.99,,,-99.99,,2013-01-20 15:53:00,
2013-01-20 11:03:00,55.0,32.0,-100.00,WNW,285,3.0,7.0,42,-99.99,,,-99.99,,2013-01-20 16:03:00,
2013-01-20 11:12:00,57.0,33.0,-100.00,NNE,15,1.0,4.0,40,-99.99,,,-99.99,,2013-01-20 16:12:00,
2013-01-20 11:23:00,59.0,33.0,-100.00,NW,310,1.0,5.0,38,-99.99,,,-99.99,,2013-01-20 16:23:00,
2013-01-20 11:33:00,59.0,33.0,-100.00,WSW,240,2.0,6.0,38,-99.99,,,-99.99,,2013-01-20 16:33:00,
2013-01-20 11:43:00,61.0,35.0,-100.00,West,270,6.0,10.0,37,-99.99,,,-99.99,,2013-01-20 16:43:00,
2013-01-20 11:52:00,60.0,33.0,-100.00,WNW,285,4.0,8.0,37,-99.99,,,-99.99,,2013-01-20 16:52:00,
2013-01-20 12:03:00,61.0,34.0,-100.00,West,270,4.0,7.0,36,-99.99,,,-99.99,,2013-01-20 17:03:00,
2013-01-20 12:13:00,61.0,33.0,-100.00,West,270,5.0,10.0,35,-99.99,,,-99.99,,2013-01-20 17:13:00,
2013-01-20 12:22:00,62.0,34.0,-100.00,West,260,2.0,7.0,35,-99.99,,,-99.99,,2013-01-20 17:22:00,
2013-01-20 12:33:00,62.0,34.0,-100.00,West,260,2.0,7.0,35,-99.99,,,-99.99,,2013-01-20 17:33:00,
2013-01-20 12:42:00,62.0,34.0,-100.00,West,260,2.0,7.0,35,-99.99,,,-99.99,,2013-01-20 17:42:00,
2013-01-20 12:52:00,64.0,35.0,-100.00,WSW,245,4.0,11.0,34,-99.99,,,-99.99,,2013-01-20 17:52:00,
2013-01-20 13:03:00,64.0,35.0,-100.00,WNW,290,6.0,16.0,34,-99.99,,,-99.99,,2013-01-20 18:03:00,
2013-01-20 13:13:00,64.0,35.0,-100.00,West,260,5.0,9.0,34,-99.99,,,-99.99,,2013-01-20 18:13:00,
2013-01-20 13:23:00,65.0,36.0,-100.00,West,280,5.0,12.0,34,-99.99,,,-99.99,,2013-01-20 18:23:00,
2013-01-20 13:33:00,65.0,35.0,-100.00,NW,320,4.0,14.0,33,-99.99,,,-99.99,,2013-01-20 18:33:00,
2013-01-20 13:43:00,65.0,35.0,-100.00,WNW,285,4.0,11.0,33,-99.99,,,-99.99,,2013-01-20 18:43:00,
2013-01-20 13:53:00,66.0,36.0,-100.00,WNW,300,6.0,14.0,33,-99.99,,,-99.99,,2013-01-20 18:53:00,
2013-01-20 14:03:00,66.0,36.0,-100.00,WNW,285,5.0,14.0,33,-99.99,,,-99.99,,2013-01-20 19:03:00,
2013-01-20 14:12:00,66.0,36.0,-100.00,West,260,6.0,14.0,33,-99.99,,,-99.99,,2013-01-20 19:12:00,
2013-01-20 14:23:00,66.0,36.0,-100.00,NW,305,4.0,13.0,33,-99.99,,,-99.99,,2013-01-20 19:23:00,
2013-01-20 14:33:00,66.0,36.0,-100.00,West,265,6.0,13.0,33,-99.99,,,-99.99,,2013-01-20 19:33:00,
2013-01-20 14:43:00,66.0,36.0,-100.00,West,265,4.0,11.0,33,-99.99,,,-99.99,,2013-01-20 19:43:00,
2013-01-20 14:52:00,65.0,36.0,-100.00,West,275,6.0,16.0,33,-99.99,,,-99.99,,2013-01-20 19:52:00,
2013-01-20 15:03:00,65.0,35.0,-100.00,NW,315,6.0,12.0,33,-99.99,,,-99.99,,2013-01-20 20:03:00,
2013-01-20 15:12:00,66.0,35.0,-100.00,West,270,7.0,12.0,32,-99.99,,,-99.99,,2013-01-20 20:12:00,
2013-01-20 15:23:00,66.0,35.0,-100.00,West,280,7.0,12.0,32,-99.99,,,-99.99,,2013-01-20 20:23:00,
2013-01-20 15:33:00,66.0,35.0,-100.00,West,280,7.0,12.0,32,-99.99,,,-99.99,,2013-01-20 20:33:00,
2013-01-20 15:42:00,65.0,35.0,-100.00,West,270,8.0,15.0,32,-99.99,,,-99.99,,2013-01-20 20:42:00,
2013-01-20 15:53:00,65.0,35.0,-100.00,West,260,6.0,15.0,32,-99.99,,,-99.99,,2013-01-20 20:53:00,
2013-01-20 16:04:00,66.0,35.0,-100.00,West,280,6.0,11.0,32,-99.99,,,-99.99,,2013-01-20 21:04:00,
2013-01-20 16:13:00,65.0,35.0,-100.00,West,260,6.0,14.0,32,-99.99,,,-99.99,,2013-01-20 21:13:00,
2013-01-20 16:23:00,65.0,35.0,-100.00,SW,220,6.0,14.0,32,-99.99,,,-99.99,,2013-01-20 21:23:00,
2013-01-20 16:33:00,65.0,35.0,-100.00,WSW,240,5.0,12.0,33,-99.99,,,-99.99,,2013-01-20 21:33:00,
2013-01-20 16:43:00,64.0,35.0,-100.00,WSW,255,8.0,15.0,34,-99.99,,,-99.99,,2013-01-20 21:43:00,
2013-01-20 16:53:00,64.0,35.0,-100.00,SW,235,9.0,14.0,34,-99.99,,,-99.99,,2013-01-20 21:53:00,
2013-01-20 17:03:00,64.0,35.0,-100.00,WSW,255,4.0,16.0,34,-99.99,,,-99.99,,2013-01-20 22:03:00,
2013-01-20 17:13:00,64.0,35.0,-100.00,WSW,245,5.0,13.0,34,-99.99,,,-99.99,,2013-01-20 22:13:00,
2013-01-20 17:23:00,63.0,35.0,-100.00,WSW,245,4.0,12.0,35,-99.99,,,-99.99,,2013-01-20 22:23:00,
2013-01-20 17:33:00,63.0,35.0,-100.00,WSW,240,5.0,10.0,35,-99.99,,,-99.99,,2013-01-20 22:33:00,
2013-01-20 17:43:00,62.0,34.0,-100.00,SW,235,6.0,10.0,35,-99.99,,,-99.99,,2013-01-20 22:43:00,
2013-01-20 17:52:00,62.0,35.0,-100.00,WSW,240,4.0,8.0,36,-99.99,,,-99.99,,2013-01-20 22:52:00,
2013-01-20 18:03:00,61.0,35.0,-100.00,WSW,240,2.0,10.0,37,-99.99,,,-99.99,,2013-01-20 23:03:00,
2013-01-20 18:13:00,61.0,35.0,-100.00,WSW,245,4.0,6.0,37,-99.99,,,-99.99,,2013-01-20 23:13:00,
2013-01-20 18:23:00,60.0,34.0,-100.00,West,280,2.0,8.0,37,-99.99,,,-99.99,,2013-01-20 23:23:00,
2013-01-20 18:33:00,60.0,33.0,-100.00,WNW,295,1.0,7.0,37,-99.99,,,-99.99,,2013-01-20 23:33:00,
2013-01-20 18:43:00,59.0,33.0,-100.00,SW,225,1.0,5.0,37,-99.99,,,-99.99,,2013-01-20 23:43:00,
2013-01-20 18:53:00,59.0,32.0,-100.00,WSW,240,3.0,5.0,37,-99.99,,,-99.99,,2013-01-20 23:53:00,
2013-01-20 19:03:00,58.0,32.0,-100.00,WSW,255,1.0,4.0,38,-99.99,,,-99.99,,2013-01-21 00:03:00,
2013-01-20 19:13:00,57.0,32.0,-100.00,WNW,290,1.0,3.0,38,-99.99,,,-99.99,,2013-01-21 00:13:00,
2013-01-20 19:23:00,57.0,32.0,-100.00,NNW,345,2.0,4.0,38,-99.99,,,-99.99,,2013-01-21 00:23:00,
2013-01-20 19:33:00,57.0,31.0,-100.00,WSW,250,1.0,3.0,38,-99.99,,,-99.99,,2013-01-21 00:33:00,
2013-01-20 19:43:00,56.0,31.0,-100.00,NW,310,2.0,4.0,38,-99.99,,,-99.99,,2013-01-21 00:43:00,
2013-01-20 19:53:00,56.0,31.0,-100.00,NW,310,2.0,4.0,38,-99.99,,,-99.99,,2013-01-21 00:53:00,
2013-01-20 20:03:00,55.0,31.0,-100.00,NNW,345,1.0,3.0,39,-99.99,,,-99.99,,2013-01-21 01:03:00,
2013-01-20 20:13:00,55.0,31.0,-100.00,NW,320,1.0,5.0,39,-99.99,,,-99.99,,2013-01-21 01:13:00,
2013-01-20 20:23:00,54.0,31.0,-100.00,North,0,1.0,4.0,40,-99.99,,,-99.99,,2013-01-21 01:23:00,
2013-01-20 20:33:00,55.0,30.0,-100.00,North,5,0.0,6.0,38,-99.99,,,-99.99,,2013-01-21 01:33:00,
2013-01-20 20:43:00,54.0,29.0,-100.00,ENE,70,1.0,3.0,38,-99.99,,,-99.99,,2013-01-21 01:43:00,
2013-01-20 20:53:00,53.0,28.0,-100.00,NNE,25,1.0,2.0,38,-99.99,,,-99.99,,2013-01-21 01:53:00,
2013-01-20 21:03:00,53.0,28.0,-100.00,ENE,65,1.0,4.0,38,-99.99,,,-99.99,,2013-01-21 02:03:00,
2013-01-20 21:13:00,53.0,28.0,-100.00,ENE,65,4.0,6.0,38,-99.99,,,-99.99,,2013-01-21 02:13:00,
2013-01-20 21:23:00,53.0,28.0,-100.00,ENE,65,2.0,5.0,38,-99.99,,,-99.99,,2013-01-21 02:23:00,
2013-01-20 21:33:00,52.0,27.0,-100.00,ENE,75,2.0,4.0,39,-99.99,,,-99.99,,2013-01-21 02:33:00,
2013-01-20 21:43:00,51.0,27.0,-100.00,North,355,0.0,5.0,40,-99.99,,,-99.99,,2013-01-21 02:43:00,
2013-01-20 21:53:00,50.0,27.0,-100.00,East,90,1.0,1.0,40,-99.99,,,-99.99,,2013-01-21 02:53:00,
2013-01-20 22:03:00,50.0,27.0,-100.00,East,85,0.0,2.0,41,-99.99,,,-99.99,,2013-01-21 03:03:00,
2013-01-20 22:13:00,49.0,28.0,-100.00,SE,140,0.0,1.0,44,-99.99,,,-99.99,,2013-01-21 03:13:00,
2013-01-20 22:23:00,48.0,27.0,-100.00,NE,35,0.0,1.0,44,-99.99,,,-99.99,,2013-01-21 03:23:00,
2013-01-20 22:33:00,47.0,29.0,-100.00,WSW,245,1.0,2.0,48,-99.99,,,-99.99,,2013-01-21 03:33:00,
2013-01-20 22:43:00,46.0,29.0,-100.00,SW,220,0.0,1.0,50,-99.99,,,-99.99,,2013-01-21 03:43:00,
2013-01-20 22:53:00,46.0,29.0,-100.00,SSE,150,0.0,1.0,52,-99.99,,,-99.99,,2013-01-21 03:53:00,
2013-01-20 23:03:00,45.0,30.0,-100.00,SW,235,0.0,0.0,56,-99.99,,,-99.99,,2013-01-21 04:03:00,
2013-01-20 23:13:00,45.0,32.0,-100.00,SW,235,0.0,1.0,60,-99.99,,,-99.99,,2013-01-21 04:13:00,
2013-01-20 23:23:00,44.0,32.0,-100.00,SW,235,0.0,1.0,62,-99.99,,,-99.99,,2013-01-21 04:23:00,
2013-01-20 23:33:00,44.0,32.0,-100.00,SW,235,0.0,1.0,63,-99.99,,,-99.99,,2013-01-21 04:33:00,
2013-01-20 23:43:00,43.0,32.0,-100.00,SW,235,1.0,1.0,65,-99.99,,,-99.99,,2013-01-21 04:43:00,
2013-01-20 23:53:00,43.0,32.0,-100.00,ENE,75,0.0,2.0,66,-99.99,,,-99.99,,2013-01-21 04:53:00,